Погода в Хэфэе

Китай     31°49′18″N   117°16′39″E
темп.,
°C
ветер,
м/с
пор.,
м/с
влажн.,
%
обл.,
%
осадки,
мм/ч
давл.,
гПа
погр.,
м
26 января, ср
ср2623:00+5всв348899 0.0 1025267
02:00+4всв3589100 0.0 1025253
05:00+4всв3788100 0.0 1024302
08:00+4всв4883100 0.0 1025412
11:00+5всв5980100 0.2 1026629
14:00+3св51098100 3.1 1024453
17:00+3св51199100 2.6 1025452
20:00+3св41097100 4.4 1027674
27 января, чт
чт2723:00+4всв5997100 1.6 1027713
02:00+3св5997100 2.8 1027545
05:00+3св51098100 1.8 1026550
08:00+2св61198100 3.9 1028528
11:00+3св51199100 2.7 1029511
14:00+3св5998100 5.6 1027488
17:00+3св5998100 1.2 1028598
20:00+3св5998100 1.6 1030487
28 января, пт
пт2823:00+2св5998100 0.8 1030484
02:00+2всв5998100 1.6 1030483
05:00+2св5989100 0.3 1029686
08:00+2св598498 0.5 1029744
11:00+3св5676100 0.2 1030833
14:00+4св5572100 0.3 10281024
17:00+3св5792100 0.8 1028609
20:00+3св3696100 0.9 1029468
29 января, сб
сб2923:00+3св3585100 0.1 1029358
02:00+3ссв3580100 0.1 1027202
05:00+2св3582100 0.0 1026246
08:00+2св3682100 0.0 1027365
11:00+4всв4561100 0.0 1027795
14:00+4всв3359100 0.1 10241011
17:00+3св2278100 0.4 1025507
20:00+3св1281100 0.4 1026414
30 января, вс
вс3023:00+2св1186100 0.0 1026157
02:00+2с118950 0.1 102685
05:00+1с118845 0.0 102577
08:00+1св118643 0.0 1027128
11:00+4юв347789 0.1 1027824
14:00+5ююз2376100 0.1 1025618
17:00+6юв236590 0.0 1024348
20:00+4ююв117399 0.0 102692